Location: Waltman Observatory
(32.5145°N, 90.4450°W)
Time: 14:02:29
(UTC-06:00)

Amateur Radio Satellites - All Passes

Search period start: 21 January 2018 13:32
Search period end: 22 January 2018 13:32
Location: Waltman Observatory, 32.5145°N, 90.4450°W

Satellite Date Start Highest point End Downlink Frequencies (MHz)
Time Altitude Azimuth
RS-15 21 Jan 13:40:31 13:42:52 11° 11° (NNE) 13:45:13 29.354- 29.394
50 SAT 21 Jan 13:53:04 13:56:11 71° 101° (ESE) 13:59:16 437.505
SO-50 21 Jan 13:55:22 13:59:47 38° 57° (ENE) 14:04:14 436.795
ITAMSAT 1 21 Jan 13:59:04 14:02:09 16° 66° (ENE) 14:05:13 435.822/435.867
UKube-1 21 Jan 14:05:49 14:10:03 56° 101° (E) 14:14:16 .
VELOX 1 21 Jan 14:06:39 14:08:56 14° 293° (WNW) 14:11:14 145.980
DX 1 21 Jan 14:19:03 14:23:17 55° 286° (WNW) 14:27:32 434.975-435.025
Gurwin Techsat 1B 21 Jan 14:21:24 14:24:51 17° 266° (W) 14:28:18 435.225
JUGNU 21 Jan 14:26:25 14:29:16 14° 195° (SSW) 14:32:09 437.505
MOZHAYETS 4 21 Jan 14:27:32 14:31:24 26° 96° (E) 14:35:14
BEESAT 21 Jan 14:42:07 14:45:40 20° 96° (E) 14:49:11 436.000
SRMSAT 21 Jan 14:45:55 14:50:36 24° 181° (S) 14:55:18 437.500
M-CUBED/EXP-1 PRIME 21 Jan 15:03:19 15:06:16 18° 66° (ENE) 15:09:07 437.505
NO-84 21 Jan 15:11:52 15:14:13 18° 125° (SE) 15:16:27 435.350 FM
AO-7 21 Jan 15:13:04 15:21:16 61° 256° (WSW) 15:29:32 .
DOVE 4 21 Jan 15:24:21 15:27:47 23° 72° (ENE) 15:31:08 437.250
ITAMSAT 1 21 Jan 15:36:09 15:41:08 50° 259° (W) 15:46:09 435.822/435.867
SO-50 21 Jan 15:36:37 15:39:57 19° 250° (WSW) 15:43:17 436.795
ITUPSAT 1 21 Jan 15:39:29 15:44:20 89° 103° (ESE) 15:49:08 437.325
UKube-1 21 Jan 15:45:06 15:45:31 10° 294° (WNW) 15:45:56 .
RS-15 21 Jan 15:50:57 16:01:01 32° 45° (NE) 16:10:37 29.354- 29.394
MOZHAYETS 4 21 Jan 16:04:43 16:08:23 24° 290° (WNW) 16:12:00
CUBESAT XI-V 21 Jan 16:08:48 16:13:25 87° 100° (E) 16:17:59 437.345
BEESAT 21 Jan 16:19:10 16:23:24 32° 289° (WNW) 16:27:38 436.000
XW-2D 21 Jan 16:26:19 16:28:18 14° 69° (ENE) 16:30:16 145.860 - 145.880
HO-68 21 Jan 16:30:26 16:33:21 13° 58° (ENE) 16:36:16 435.675
SRMSAT 21 Jan 16:35:08 16:39:11 19° 191° (S) 16:43:14 437.500
M-CUBED/EXP-1 PRIME 21 Jan 16:36:24 16:40:24 33° 257° (WSW) 16:44:11 437.505
XW-2B 21 Jan 16:42:53 16:45:49 21° 72° (ENE) 16:48:46 145.730 - 145.750
NO-84 21 Jan 16:48:40 16:51:15 23° 316° (NW) 16:53:43 435.350 FM
DOVE 4 21 Jan 17:02:03 17:05:22 21° 264° (W) 17:08:37 437.250
LilacSat-2 21 Jan 17:11:05 17:14:53 59° 77° (ENE) 17:18:41 437.200
XW-2C 21 Jan 17:12:20 17:16:05 56° 77° (ENE) 17:19:50 145.795 - 145.815
CUTE-I 21 Jan 17:14:29 17:19:35 49° 73° (ENE) 17:24:42 437.470
KKS-1 21 Jan 17:27:13 17:31:41 84° 100° (E) 17:36:09 437.445
STARS 21 Jan 17:41:03 17:45:15 42° 100° (E) 17:49:26 437.465
KAITUO 1B 21 Jan 17:44:43 17:48:28 76° 257° (WSW) 17:52:14 145.475/437.950
XW-2F 21 Jan 17:47:58 17:51:39 48° 260° (W) 17:55:21 145.980 - 146.000
SEEDS 21 Jan 17:49:23 17:52:38 22° 71° (ENE) 17:55:53 437.485
BEESAT 3 21 Jan 17:52:20 17:55:26 22° 55° (NE) 17:58:29 437.485
NUDT-PHONESAT 21 Jan 17:54:16 17:57:57 59° 260° (W) 18:01:38 437.300
XW-2D 21 Jan 17:58:44 18:02:08 30° 262° (W) 18:05:32 145.860 - 145.880
CUTE 1.7 + AOD 2 21 Jan 18:02:29 18:06:40 58° 76° (ENE) 18:10:52 437.475
RS-15 21 Jan 18:02:54 18:14:19 70° 247° (WSW) 18:25:11 29.354- 29.394
HO-68 21 Jan 18:12:50 18:19:59 84° 75° (ENE) 18:27:10 435.675
XW-2B 21 Jan 18:17:05 18:19:51 19° 264° (W) 18:22:37 145.730 - 145.750
CUBEBUG 2 21 Jan 18:22:59 18:27:15 62° 76° (ENE) 18:31:41 437.445
UWE-3 21 Jan 18:26:51 18:30:52 35° 73° (ENE) 18:34:59 435.000/436.395/437.385
BEESAT 2 21 Jan 18:42:24 18:45:26 20° 54° (NE) 18:48:25 435.950
ZACube-1 21 Jan 18:48:43 18:52:37 31° 72° (ENE) 18:56:37 437.345
nSIGHT-1 21 Jan 18:52:34 18:55:26 33° 131° (SE) 18:58:19 .
AO-73 21 Jan 18:54:54 18:58:50 32° 72° (ENE) 19:02:51 145.935
CUTE-I 21 Jan 18:56:40 18:59:49 16° 266° (W) 19:03:00 437.470
AAUSAT CUBESAT 2 21 Jan 19:02:48 19:06:53 70° 78° (ENE) 19:11:00 437.432
PCSat 21 Jan 19:03:00 19:08:25 71° 64° (ENE) 19:13:49 145.827
ISS 21 Jan 19:09:15 19:12:11 33° 131° (SE) 19:15:09 437.550
STARS 21 Jan 19:18:52 19:21:10 14° 293° (WNW) 19:23:28 437.465
SEEDS 21 Jan 19:24:46 19:28:08 23° 264° (W) 19:31:32 437.485
STRAND 1 21 Jan 19:26:00 19:31:10 75° 102° (ESE) 19:36:18 437.568
Oscar 11 21 Jan 19:26:59 19:31:09 46° 75° (ENE) 19:35:19 .
BEESAT 3 21 Jan 19:29:48 19:32:48 21° 249° (WSW) 19:35:45 437.485
XW-2A 21 Jan 19:34:43 19:38:00 43° 261° (W) 19:41:17 145.665 - 145.685
FO-29 21 Jan 19:37:46 19:42:31 36° 99° (E) 19:47:26 435.910
UWE-3 21 Jan 20:04:43 20:07:24 16° 267° (W) 20:10:07 435.000/436.395/437.385
HO-68 21 Jan 20:05:14 20:08:19 13° 268° (W) 20:11:26 435.675
BEESAT 2 21 Jan 20:19:45 20:23:03 25° 249° (WSW) 20:26:18 435.950
ZACube-1 21 Jan 20:25:52 20:28:53 18° 266° (W) 20:31:59 437.345
nSIGHT-1 21 Jan 20:29:26 20:31:39 17° 325° (NW) 20:33:52 .
AO-73 21 Jan 20:32:06 20:35:04 18° 266° (W) 20:38:06 145.935
AO-85 21 Jan 20:40:16 20:45:17 59° 60° (ENE) 20:50:31 145.980
ISS 21 Jan 20:46:19 20:48:43 19° 325° (NW) 20:51:06 437.550
PCSat 21 Jan 20:49:31 20:51:07 11° 258° (WSW) 20:52:42 145.827
TIGRISAT 21 Jan 20:55:38 20:59:11 21° 95° (E) 21:02:42 435.000
YUBILEINY 21 Jan 21:02:51 21:05:23 11° 78° (ENE) 21:07:54 435.215
DELFI C3 21 Jan 21:05:42 21:09:34 64° 260° (W) 21:13:27 145.870
Oscar 11 21 Jan 21:06:00 21:07:28 11° 268° (W) 21:08:54 .
STRAND 1 21 Jan 21:08:34 21:09:38 11° 297° (WNW) 21:10:43 437.568
UNISAT 6 21 Jan 21:10:35 21:14:52 34° 98° (E) 21:19:06 437.425
FO-29 21 Jan 21:23:41 21:27:24 20° 292° (WNW) 21:31:10 435.910
Max Valier Satellite 21 Jan 21:32:54 21:36:25 41° 261° (W) 21:39:58 145.860
EO-88 21 Jan 21:49:21 21:52:47 38° 261° (W) 21:56:13 145.990 - 145.960
ESTCUBE 1 21 Jan 21:51:10 21:54:08 18° 69° (ENE) 21:57:07 437.505/2401.250
AO-85 21 Jan 22:22:29 22:25:18 15° 252° (WSW) 22:28:10 145.980
TIGRISAT 21 Jan 22:31:42 22:35:48 30° 288° (WNW) 22:39:52 435.000
PRISM 21 Jan 22:39:24 22:43:28 72° 101° (E) 22:47:32 437.425
AIST 2D 21 Jan 22:42:22 22:45:27 30° 98° (E) 22:48:31 435.315
UNISAT 6 21 Jan 22:47:59 22:51:16 19° 291° (WNW) 22:54:31 437.425
YUBILEINY 21 Jan 22:51:53 23:00:42 81° 94° (E) 23:09:31 435.215
POLYITAN 1 21 Jan 22:58:09 23:00:12 13° 94° (E) 23:02:15 437.675
LO-87 21 Jan 23:05:22 23:08:38 36° 262° (W) 23:11:58 145.935 - 145.965
SPROUT 21 Jan 23:10:15 23:13:53 28° 72° (ENE) 23:17:32 437.525
NANOSAT C BR1 21 Jan 23:12:03 23:14:52 17° 95° (E) 23:17:41 145.865
VELOX 1 21 Jan 23:21:59 23:25:17 21° 70° (ENE) 23:28:34 145.980
NO-84 21 Jan 23:24:37 23:26:24 15° 41° (NE) 23:28:13 435.350 FM
QB50P2 21 Jan 23:26:20 23:30:15 34° 98° (E) 23:34:07 145.880/145.840
ESTCUBE 1 21 Jan 23:26:30 23:30:37 35° 262° (W) 23:34:45 437.505/2401.250
O/OREOS (USA 219) 21 Jan 23:38:23 23:42:45 51° 105° (ESE) 23:47:06 437.305
DUCHIFAT 1 21 Jan 23:54:00 23:58:08 48° 100° (E) 00:02:14 145.980
EO-79 21 Jan 23:56:32 00:00:49 74° 101° (ESE) 00:05:04 145.935-145.965
AIST 2D 22 Jan 00:17:25 00:18:15 11° 291° (WNW) 00:19:05 435.315
POLYITAN 1 22 Jan 00:32:05 00:36:05 39° 287° (WNW) 00:40:03 437.675
AO-91 22 Jan 00:33:34 00:37:13 22° 97° (E) 00:41:05 145.960
SPROUT 22 Jan 00:46:49 00:49:43 18° 265° (W) 00:52:39 437.525
NANOSAT C BR1 22 Jan 00:46:49 00:50:34 30° 288° (WNW) 00:54:15 145.865
BUGSAT 1 22 Jan 00:50:55 00:55:01 46° 100° (E) 00:59:05 437.445
YUBILEINY 22 Jan 00:53:03 00:58:23 17° 291° (WNW) 01:03:45 435.215
UKube-1 22 Jan 00:56:00 00:59:33 26° 71° (ENE) 01:03:06 .
VELOX 1 22 Jan 00:57:50 01:01:31 26° 263° (W) 01:05:13 145.980
Gurwin Techsat 1B 22 Jan 01:00:59 01:05:24 26° 97° (E) 01:09:46 435.225
NO-84 22 Jan 01:01:00 01:03:31 26° 234° (SW) 01:06:10 435.350 FM
QB50P2 22 Jan 01:03:06 01:05:41 16° 291° (WNW) 01:08:15 145.880/145.840
Oscar 19 22 Jan 01:05:37 01:10:27 39° 99° (E) 01:15:13 437.125/150
DX 1 22 Jan 01:09:30 01:13:48 68° 76° (ENE) 01:18:06 434.975-435.025
O/OREOS (USA 219) 22 Jan 01:20:32 01:22:25 12° 300° (WNW) 01:24:18 437.305
MOZHAYETS 4 22 Jan 01:25:51 01:28:34 16° 68° (ENE) 01:31:18
DUCHIFAT 1 22 Jan 01:31:59 01:33:17 11° 293° (WNW) 01:34:35 145.980
FALCONSAT 3 22 Jan 01:32:24 01:34:28 14° 147° (SSE) 01:36:32 435.103
50 SAT 22 Jan 01:44:25 01:47:12 31° 261° (W) 01:50:00 437.505
BEESAT 22 Jan 01:45:01 01:47:38 15° 66° (ENE) 01:50:15 436.000
AO-91 22 Jan 02:09:24 02:13:33 33° 286° (WNW) 02:18:02 145.960
BUGSAT 1 22 Jan 02:28:21 02:29:53 12° 293° (WNW) 02:31:26 437.445
UKube-1 22 Jan 02:32:15 02:35:28 20° 264° (W) 02:38:41 .
Gurwin Techsat 1B 22 Jan 02:40:38 02:45:15 31° 290° (WNW) 02:49:51 435.225
ITUPSAT 1 22 Jan 02:41:23 02:46:05 61° 74° (ENE) 02:50:49 437.325
Oscar 19 22 Jan 02:45:45 02:49:25 20° 293° (WNW) 02:53:04 437.125/150
nSIGHT-1 22 Jan 02:58:20 03:01:28 54° 43° (NE) 03:04:35 .
MOZHAYETS 4 22 Jan 03:00:58 03:05:19 41° 261° (W) 03:09:42
CUBESAT XI-V 22 Jan 03:07:07 03:11:38 49° 74° (ENE) 03:16:09 437.345
FALCONSAT 3 22 Jan 03:09:30 03:13:08 63° 159° (SSE) 03:16:46 435.103
ISS 22 Jan 03:16:36 03:19:49 55° 42° (NE) 03:23:02 437.550
AO-7 22 Jan 03:19:45 03:28:03 63° 104° (ESE) 03:36:16 .
BEESAT 22 Jan 03:20:23 03:24:57 46° 260° (W) 03:29:33 436.000
ITAMSAT 1 22 Jan 03:53:18 03:58:32 84° 103° (ESE) 04:03:45 435.822/435.867
SO-50 22 Jan 04:05:23 04:09:21 33° 112° (ESE) 04:13:23 436.795
M-CUBED/EXP-1 PRIME 22 Jan 04:19:38 04:21:55 18° 101° (E) 04:24:10 437.505
KKS-1 22 Jan 04:20:36 04:24:45 42° 73° (ENE) 04:28:55 437.445
ITUPSAT 1 22 Jan 04:23:39 04:24:13 10° 268° (W) 04:24:46 437.325
STARS 22 Jan 04:33:42 04:36:58 21° 70° (ENE) 04:40:15 437.465
CUBESAT XI-V 22 Jan 04:47:07 04:49:10 13° 267° (W) 04:51:14 437.345
FALCONSAT 3 22 Jan 04:48:39 04:52:16 55° 354° (N) 04:55:53 435.103
DOVE 4 22 Jan 05:03:13 05:07:36 63° 284° (WNW) 05:12:16 437.250
AO-7 22 Jan 05:13:42 05:20:07 26° 300° (WNW) 05:26:32 .
KAITUO 1B 22 Jan 05:21:31 05:23:25 14° 94° (E) 05:25:17 145.475/437.950
XW-2F 22 Jan 05:24:47 05:27:40 21° 96° (E) 05:30:31 145.980 - 146.000
NUDT-PHONESAT 22 Jan 05:29:33 05:31:54 16° 95° (E) 05:34:13 437.300
XW-2D 22 Jan 05:35:14 05:38:40 33° 98° (E) 05:42:04 145.860 - 145.880
CUTE-I 22 Jan 05:36:26 05:41:01 29° 97° (E) 05:45:36 437.470
SO-50 22 Jan 05:46:31 05:49:50 20° 308° (NW) 05:53:13 436.795
HO-68 22 Jan 05:47:06 05:52:08 20° 95° (E) 05:57:09 435.675
FO-29 22 Jan 05:48:57 05:50:47 11° 64° (ENE) 05:52:35 435.910
XW-2B 22 Jan 05:52:40 05:56:22 57° 100° (E) 06:00:02 145.730 - 145.750
CUTE 1.7 + AOD 2 22 Jan 05:53:23 05:55:33 14° 93° (E) 05:57:43 437.475
M-CUBED/EXP-1 PRIME 22 Jan 05:54:06 05:56:10 16° 294° (WNW) 05:58:14 437.505
KKS-1 22 Jan 05:59:22 06:01:25 13° 266° (W) 06:03:30 437.445
RS-15 22 Jan 06:08:43 06:18:34 30° 103° (ESE) 06:28:21 29.354- 29.394
STARS 22 Jan 06:09:29 06:13:06 26° 263° (W) 06:16:46 437.465
CUBEBUG 2 22 Jan 06:18:55 06:22:26 20° 94° (E) 06:25:55 437.445
LilacSat-2 22 Jan 06:22:49 06:26:25 44° 285° (WNW) 06:29:58 437.200
XW-2C 22 Jan 06:23:11 06:26:47 47° 284° (WNW) 06:30:22 145.795 - 145.815
UWE-3 22 Jan 06:23:19 06:24:34 11° 91° (E) 06:25:50 435.000/436.395/437.385
FALCONSAT 3 22 Jan 06:27:55 06:31:33 62° 10° (N) 06:35:12 435.103
STRAND 1 22 Jan 06:37:12 06:42:14 66° 75° (ENE) 06:47:17 437.568
AAUSAT CUBESAT 2 22 Jan 06:50:33 06:52:54 15° 94° (E) 06:55:15 437.432
KAITUO 1B 22 Jan 06:54:14 06:57:21 27° 287° (WNW) 07:00:28 145.475/437.950
XW-2F 22 Jan 06:59:00 07:01:34 18° 289° (WNW) 07:04:08 145.980 - 146.000
XW-2A 22 Jan 07:01:41 07:03:22 13° 94° (E) 07:05:04 145.665 - 145.685
NUDT-PHONESAT 22 Jan 07:02:46 07:05:38 22° 288° (WNW) 07:08:29 437.300
XW-2D 22 Jan 07:11:05 07:12:26 12° 291° (WNW) 07:13:48 145.860 - 145.880
SEEDS 22 Jan 07:11:52 07:16:02 80° 103° (ESE) 07:20:10 437.485
CUTE-I 22 Jan 07:16:26 07:20:55 28° 291° (WNW) 07:25:25 437.470
Oscar 11 22 Jan 07:20:42 07:22:24 12° 93° (E) 07:24:04 .
CUTE 1.7 + AOD 2 22 Jan 07:27:37 07:31:27 35° 286° (WNW) 07:35:16 437.475
FO-29 22 Jan 07:28:08 07:35:12 87° 76° (ENE) 07:41:26 435.910
HO-68 22 Jan 07:33:10 07:40:11 61° 289° (WNW) 07:47:12 435.675
BEESAT 3 22 Jan 07:39:23 07:40:21 11° 108° (ESE) 07:41:18 437.485
TIGRISAT 22 Jan 07:52:36 07:53:09 10° 65° (ENE) 07:53:43 435.000
CUBEBUG 2 22 Jan 07:54:48 07:59:01 32° 288° (WNW) 08:03:10 437.445
UWE-3 22 Jan 07:56:44 08:01:17 55° 285° (WNW) 08:05:44 435.000/436.395/437.385
PCSat 22 Jan 07:58:48 08:02:15 17° 105° (ESE) 08:05:43 145.827
UNISAT 6 22 Jan 08:05:47 08:08:40 17° 68° (ENE) 08:11:36 437.425
FALCONSAT 3 22 Jan 08:07:04 08:10:36 45° 203° (SSW) 08:14:06 435.103
ZACube-1 22 Jan 08:17:01 08:21:32 64° 284° (WNW) 08:25:54 437.345
RS-15 22 Jan 08:17:47 08:30:03 70° 300° (WNW) 08:42:16 29.354- 29.394
STRAND 1 22 Jan 08:20:43 08:21:46 11° 268° (W) 08:22:49 437.568
AO-73 22 Jan 08:22:52 08:27:20 63° 284° (WNW) 08:31:41 145.935
AAUSAT CUBESAT 2 22 Jan 08:24:44 08:28:22 31° 287° (WNW) 08:32:00 437.432
XW-2A 22 Jan 08:33:23 08:36:00 21° 287° (WNW) 08:38:35 145.665 - 145.685
JUGNU 22 Jan 08:45:31 08:48:59 16° 167° (SSE) 08:52:29 437.505
DELFI C3 22 Jan 08:47:21 08:50:20 21° 96° (E) 08:53:19 145.870
Oscar 11 22 Jan 08:54:35 08:58:41 43° 285° (WNW) 09:02:44 .
Max Valier Satellite 22 Jan 09:07:23 09:10:19 22° 96° (E) 09:13:13 145.860
YUBILEINY 22 Jan 09:08:39 09:16:11 32° 75° (ENE) 09:23:38 435.215
BEESAT 3 22 Jan 09:13:35 09:17:23 45° 301° (WNW) 09:21:14 437.485
FO-29 22 Jan 09:18:22 09:20:30 12° 267° (W) 09:22:35 435.910
EO-88 22 Jan 09:22:27 09:25:18 22° 96° (E) 09:28:07 145.990 - 145.960
PRISM 22 Jan 09:24:19 09:27:42 26° 72° (ENE) 09:31:04 437.425
TIGRISAT 22 Jan 09:24:54 09:29:13 59° 260° (W) 09:33:40 435.000
PCSat 22 Jan 09:39:58 09:45:10 49° 299° (WNW) 09:50:26 145.827
UNISAT 6 22 Jan 09:41:03 09:45:01 34° 262° (W) 09:49:07 437.425
O/OREOS (USA 219) 22 Jan 09:52:53 09:57:10 45° 68° (ENE) 10:01:28 437.305
BEESAT 2 22 Jan 10:05:20 10:09:13 50° 301° (WNW) 10:13:08 435.950
QB50P2 22 Jan 10:15:35 10:17:57 15° 68° (ENE) 10:20:19 145.880/145.840
DELFI C3 22 Jan 10:21:57 10:24:55 21° 289° (WNW) 10:27:52 145.870
JUGNU 22 Jan 10:32:53 10:37:22 23° 177° (S) 10:41:50 437.505
LO-87 22 Jan 10:36:35 10:39:25 21° 96° (E) 10:42:15 145.935 - 145.965
RS-15 22 Jan 10:36:50 10:45:12 20° 325° (NW) 10:53:30 29.354- 29.394
Max Valier Satellite 22 Jan 10:41:31 10:43:54 17° 289° (WNW) 10:46:16 145.860
DUCHIFAT 1 22 Jan 10:41:48 10:44:50 20° 70° (ENE) 10:47:53 145.980
AIST 2D 22 Jan 10:44:03 10:47:32 63° 260° (W) 10:51:01 435.315
EO-79 22 Jan 10:44:27 10:48:04 29° 72° (ENE) 10:51:44 145.935-145.965
AO-85 22 Jan 10:50:52 10:54:37 49° 115° (ESE) 10:58:34 145.980
EO-88 22 Jan 10:56:22 10:58:42 16° 289° (WNW) 11:01:02 145.990 - 145.960
SRMSAT 22 Jan 10:58:17 11:00:30 12° 163° (SSE) 11:02:44 437.500
PRISM 22 Jan 11:00:04 11:02:53 18° 264° (W) 11:05:43 437.425
YUBILEINY 22 Jan 11:04:54 11:13:03 46° 271° (W) 11:21:09 435.215
POLYITAN 1 22 Jan 11:19:12 11:23:25 81° 76° (ENE) 11:27:41 437.675
ESTCUBE 1 22 Jan 11:22:54 11:27:21 69° 101° (E) 11:31:48 437.505/2401.250
NANOSAT C BR1 22 Jan 11:33:15 11:37:27 78° 259° (W) 11:41:41 145.865
O/OREOS (USA 219) 22 Jan 11:34:19 11:36:05 12° 261° (W) 11:37:52 437.305
BUGSAT 1 22 Jan 11:36:58 11:39:40 17° 69° (ENE) 11:42:24 437.445
QB50P2 22 Jan 11:49:29 11:53:22 36° 262° (W) 11:57:17 145.880/145.840
LO-87 22 Jan 12:10:13 12:12:36 17° 289° (WNW) 12:14:58 145.935 - 145.965
DUCHIFAT 1 22 Jan 12:16:45 12:20:16 26° 263° (W) 12:23:49 145.980
Gurwin Techsat 1B 22 Jan 12:17:42 12:22:06 27° 69° (ENE) 12:26:31 435.225
Oscar 19 22 Jan 12:17:53 12:22:36 37° 71° (ENE) 12:27:21 437.125/150
EO-79 22 Jan 12:20:58 12:23:47 18° 265° (W) 12:26:39 145.935-145.965
JUGNU 22 Jan 12:21:29 12:25:46 21° 187° (S) 12:30:03 437.505
AO-85 22 Jan 12:33:46 12:35:21 12° 312° (NW) 12:36:59 145.980
SPROUT 22 Jan 12:35:06 12:39:25 78° 283° (WNW) 12:43:41 437.525
SO-50 22 Jan 12:42:37 12:44:04 11° 47° (NE) 12:45:32 436.795
SRMSAT 22 Jan 12:44:39 12:49:01 21° 172° (S) 12:53:24 437.500
VELOX 1 22 Jan 12:51:14 12:55:39 80° 103° (ESE) 13:00:02 145.980
AO-91 22 Jan 13:02:47 13:06:05 57° 260° (W) 13:09:27 145.960
DX 1 22 Jan 13:03:15 13:06:02 17° 95° (E) 13:08:49 434.975-435.025
50 SAT 22 Jan 13:04:47 13:05:28 11° 95° (E) 13:06:08 437.505
BUGSAT 1 22 Jan 13:11:16 13:14:45 28° 263° (W) 13:18:18 437.445
